Regional Weather Roundup
Issued by NWS

Home | Current Version | Previous Version | Graphics & Text | Print | Product List | Glossary On
Versions: 1 2 3 4 5 6 7 8 9 10 11 12 13 14 15 16 17 18 19 20 21 22 23 24 25 26 27 28 29 30 31 32 33 34 35 36 37 38 39 40 41 42 43 44 45 46 47 48 49 50
000
ASUS43 KFSD 171510
RWRSD

WEATHER ROUNDUP FOR SOUTH DAKOTA
NATIONAL WEATHER SERVICE SIOUX FALLS SD
1000 AM CDT WED SEP 17 2014

NOTE: "FAIR" INDICATES FEW OR NO CLOUDS BELOW 12,000 FEET WITH NO
SIGNIFICANT WEATHER AND/OR OBSTRUCTIONS TO VISIBILITY.


SDZ001>005-009-010-012>017-171600-
NORTHWEST AND NORTH CENTRAL SOUTH DAKOTA

CITY           SKY/WX    TMP DP  RH WIND       PRES   REMARKS
BUFFALO          N/A     60  50  69 E7        29.90S
FAITH            N/A     59  51  75 NE5       29.96R
MOBRIDGE       SUNNY     60  53  77 CALM      29.94R
$$

SDZ012>016-024>037-041>051-057-063-072>074-171600-
SOUTHWEST AND SOUTH CENTRAL SOUTH DAKOTA

CITY           SKY/WX    TMP DP  RH WIND       PRES   REMARKS
RAPID CTY ARPT MOSUNNY   69  44  40 N7        29.97S
PIERRE         SUNNY     61  56  83 CALM      29.92R
CUSTER         PTSUNNY   63  36  36 CALM      30.09S
ELLSWORTH AFB  PTSUNNY   66  44  45 N6        29.97R
PHILIP         SUNNY     61  53  75 VRB5      29.94R
PINE RIDGE     SUNNY     61  52  72 W5        29.98R
WINNER         FAIR      65  58  78 E5        29.93R
$$

SDZ004>011-016>023-039-040-171600-
NORTHEAST SOUTH DAKOTA

CITY           SKY/WX    TMP DP  RH WIND       PRES   REMARKS
ABERDEEN       SUNNY     54  52  93 N5        29.96R
WATERTOWN      SUNNY     60  53  77 CALM      29.94R
SISSETON         N/A     62  55  77 NE8       29.93R
$$

SDZ017-020-022-023-036>040-048>070-171600-
SOUTHEAST SOUTH DAKOTA

CITY           SKY/WX    TMP DP  RH WIND       PRES   REMARKS
SIOUX FALLS    MOSUNNY   62  53  72 CALM      29.93S
HURON          SUNNY     58  52  80 N3        29.94R
CHAMBERLAIN    SUNNY     58  57  99 CALM      29.93S
MITCHELL       SUNNY     59  54  83 CALM      29.94R
YANKTON        SUNNY     61  55  82 CALM      29.92S
$$

ABBREVIATIONS USED IN REMARKS
   TC - TEMPERATURE IN CELSIUS
  WCI - WIND CHILL INDEX
   HX - HEAT INDEX
  VSB - VISIBILITY




USA.gov is the U.S. government's official web portal to all federal, state and local government web resources and services.